Main page
Satellite images Climate Cyclones Lightning AirportsFAQ Languages Contact Newsletter About
Weather : Europe Africa North America South America Asia Australia-Oceania Others

, Nan, Nan Nakhon Airport

48331

latitude: , longitude: Thailand, elevation: 18-46N m


METAR: VTCN 200300Z 16007KT 120V180 9999 SCT025 SCT100 28/25 Q1007 NOSIG